Weather History for Ft Lauderdale, FL

Change the Weather History Date:

Sunday, November 18, 2012

  Actual Average Record
Temperature  
Mean Temperature 75 °F 75 °F  
Max Temperature 81 °F 81 °F 89 °F (1921)
Min Temperature 68 °F 69 °F 42 °F (1951)
Degree Days  
Heating Degree Days 0 0  
Month to date heating degree days 2 0  
Since 1 July heating degree days 0  
Cooling Degree Days 10 10  
Month to date cooling degree days 142 206  
Year to date cooling degree days 4299 4400  
Growing Degree Days 24 (Base 50)    
Moisture  
Dew Point 64 °F    
Average Humidity 72    
Maximum Humidity 90    
Minimum Humidity 54    
Precipitation  
Precipitation T in 0.09 in 2.14 in (1959)
Month to date precipitation 0.49 2.20  
Year to date precipitation 59.78 58.68  
Snow  
Snow 0.00 in - - ()
Month to date snowfall 0.0  
Since 1 July snowfall 0.0  
Since 1 September snowfall 0.0  
Snow Depth 0.00 in    
Sea Level Pressure  
Sea Level Pressure 30.07 in    
Wind  
Wind Speed 12 mph (North)    
Max Wind Speed 22 mph    
Max Gust Speed 28 mph    
Visibility 10 miles    
Events Rain    
T = Trace of Precipitation, MM = Missing Value Source: NWS Daily Summary

Daily Weather History Graph

Daily Weather History Graph

Search for Another Location

Airport:

Trip Planner

Search our weather history database for the weather conditions in past years. The results will help you decide how hot, cold, wet, or windy it might be!

Date:

Astronomy

Nov. 18, 2012 Rise Set
Actual Time 6:41 AM EST 5:30 PM EST
Civil Twilight 6:17 AM EST 5:54 PM EST
Nautical Twilight 5:49 AM EST 6:22 PM EST
Astronomical Twilight 5:21 AM EST 6:50 PM EST
Moon 11:12 AM EST (11/18) 10:39 PM EST (11/18)
Length of Visible Light 11h 37m
Length of Day
10h 48m
Waxing Crescent, 30% of the Moon is Illuminated
Nov 18
Waxing Crescent
Nov 20
First Quarter
Nov 28
Full
Dec 6
Last Quarter
Dec 13
New

Hourly Weather History & Observations

Time (EST) Temp. Heat Index Dew Point Humidity Pressure Visibility Wind Dir Wind Speed Gust Speed Precip Events Conditions
12:53 AM 73.9 °F - 63.0 °F 68% 30.04 in 10.0 mi NNE 6.9 mph - N/A   Mostly Cloudy
1:53 AM 75.0 °F - 63.0 °F 66% 30.03 in 10.0 mi ENE 10.4 mph - N/A   Scattered Clouds
2:53 AM 70.0 °F - 64.9 °F 84% 30.03 in 10.0 mi NNW 9.2 mph - N/A   Scattered Clouds
3:53 AM 68.0 °F - 64.9 °F 90% 30.02 in 10.0 mi NNW 6.9 mph - N/A   Partly Cloudy
4:53 AM 68.0 °F - 64.9 °F 90% 30.03 in 10.0 mi NNW 6.9 mph - N/A   Partly Cloudy
5:53 AM 68.0 °F - 64.9 °F 90% 30.03 in 10.0 mi North 4.6 mph - N/A   Scattered Clouds
6:53 AM 70.0 °F - 66.0 °F 87% 30.05 in 10.0 mi NNW 6.9 mph - N/A   Mostly Cloudy
7:53 AM 70.0 °F - 66.0 °F 87% 30.07 in 10.0 mi NNW 6.9 mph - 0.00 in Rain Light Rain
8:53 AM 77.0 °F - 66.0 °F 69% 30.08 in 10.0 mi North 15.0 mph 18.4 mph 0.00 in   Scattered Clouds
9:53 AM 73.9 °F - 66.0 °F 76% 30.10 in 10.0 mi North 15.0 mph - N/A   Scattered Clouds
10:53 AM 79.0 °F - 64.0 °F 60% 30.08 in 10.0 mi NNE 17.3 mph - N/A   Scattered Clouds
11:53 AM 80.1 °F 81.5 °F 63.0 °F 56% 30.06 in 10.0 mi NNE 16.1 mph 25.3 mph N/A   Scattered Clouds
12:53 PM 81.0 °F 82.5 °F 64.0 °F 56% 30.05 in 10.0 mi NE 15.0 mph 23.0 mph N/A   Scattered Clouds
1:53 PM 80.1 °F 81.7 °F 64.0 °F 58% 30.03 in 10.0 mi NE 19.6 mph - N/A   Mostly Cloudy
2:53 PM 79.0 °F - 64.0 °F 60% 30.03 in 10.0 mi NNE 16.1 mph 25.3 mph N/A   Scattered Clouds
3:53 PM 78.1 °F - 64.0 °F 62% 30.04 in 10.0 mi NNE 18.4 mph - N/A   Scattered Clouds
4:53 PM 75.9 °F - 64.0 °F 67% 30.05 in 10.0 mi NNE 15.0 mph - N/A   Scattered Clouds
5:53 PM 75.0 °F - 64.0 °F 69% 30.06 in 10.0 mi North 13.8 mph - N/A   Scattered Clouds
6:53 PM 73.0 °F - 64.0 °F 73% 30.07 in 10.0 mi North 12.7 mph 19.6 mph N/A   Scattered Clouds
7:53 PM 71.1 °F - 64.0 °F 78% 30.09 in 10.0 mi North 11.5 mph - N/A   Partly Cloudy
8:53 PM 70.0 °F - 64.0 °F 81% 30.11 in 10.0 mi North 11.5 mph - N/A   Partly Cloudy
9:53 PM 69.1 °F - 64.0 °F 84% 30.11 in 10.0 mi North 10.4 mph - N/A   Scattered Clouds
10:15 PM 69.8 °F - 64.4 °F 83% 30.11 in 10.0 mi North 5.8 mph - N/A   Mostly Cloudy
10:53 PM 69.1 °F - 64.0 °F 84% 30.11 in 10.0 mi North 6.9 mph - N/A   Overcast
11:03 PM 69.8 °F - 64.4 °F 83% 30.11 in 10.0 mi NNW 8.1 mph - N/A   Overcast
11:53 PM 68.0 °F - 64.0 °F 87% 30.10 in 10.0 mi North 10.4 mph - N/A   Mostly Cloudy